Погода в Евсеевичах

Беларусь     53°05′09″N   28°40′06″E
темп.,
°C
ветер,
м/с
пор.,
м/с
влажн.,
%
обл.,
%
осадки,
мм/ч
давл.,
гПа
погр.,
м
26 февраля, пт
пт2600:00+4з489899 0.0 1024258
03:00+4зюз4109899 0.0 1023324
06:00+4зюз5998100 0.0 1020343
09:00+4з41098100 0.0 1019301
12:00+5зсз5119798 0.0 1019599
15:00+7з6118099 0.0 1018796
18:00+4з51285100 0.0 1017529
21:00+3з41389100 0.0 1016444
27 февраля, сб
сб2700:00+3з41289100 0.0 1016554
03:00+2з41190100 0.1 1015542
06:00+2з51290100 0.0 1014655
09:00+2зсз51196100 0.1 1015650
12:00+2зсз41097100 0.4 1015623
15:00+3сз5984100 0.6 1017789
18:00+2сз51097100 0.1 1018631
21:00+1ссз4996100 0.2 1020572
28 февраля, вс
вс2800:000ссз51096100 0.5 1022491
03:000ссз499099 0.6 1024476
06:00−2сз399588 0.0 1024372
09:000сз488792 0.1 1025655
12:00+1ссз4779100 0.1 1025874
15:00+2сз4774100 0.1 1025912
18:00+2сз387796 0.0 1024641
21:00+1сз279898 0.5 1025334
1 марта, пн
пн100:00+1с2598100 0.1 1026274
03:00+1сз2598100 0.1 1027250
06:000сз3698100 0.1 1027304
09:00+1сз3893100 0.1 1028437
12:00+4ссз367999 0.0 1029710
15:00+2зсз1396100 0.1 1030163
18:00+3ссз2495100 0.0 1031280
21:00+2зсз1196100 0.0 103222
2 марта, вт
вт200:00+2зюз2396100 0.0 1032109
03:00+1зюз3795100 0.0 1032203
06:00+1з41094100 0.0 1030343
09:00+2зсз51289100 0.0 1029516
12:00+5сз5107893 0.0 1030505
15:00+7сз5107296 0.0 1029609
18:00+6сз4117666 0.0 1029572
21:00+4сз4118634 0.0 1030340